Location: Unspecified
(27.4304°N, 0.0000°E)
Time: 16:44:12
(UTC+00:00)

CANX 3A (UNIBRITE) - Visible Passes

Search period start: 04 April 2026 00:00
Search period end: 14 April 2026 00:00
Orbit: 763 x 778 km, 98.4° (Epoch: 28 March)

Date Brightness Start Highest point End Pass type
(mag) Time Alt. Az. Time Alt. Az. Time Alt. Az.
4 Apr ? 04:14:09 10° ESE 04:17:58 22° ENE 04:21:47 10° NNE visible
5 Apr ? 05:16:28 10° S 05:21:32 76° WSW 05:26:37 10° NNW visible
6 Apr ? 04:41:37 10° SE 04:46:24 44° ENE 04:51:12 10° N visible
6 Apr ? 18:38:11 10° NNW 18:42:12 24° WNW 18:46:13 10° WSW visible
7 Apr ? 04:07:59 10° ESE 04:11:26 19° ENE 04:14:52 10° NNE visible
8 Apr ? 05:09:51 10° SSE 05:14:56 89° WSW 05:20:02 10° NNW visible
8 Apr ? 19:08:48 10° NW 19:10:32 12° WNW 19:12:16 10° W visible
9 Apr ? 04:35:12 10° SE 04:39:50 37° ENE 04:44:28 10° N visible
10 Apr ? 04:01:54 10° ESE 04:04:54 16° ENE 04:07:52 10° NNE visible
11 Apr ? 05:03:16 10° SSE 05:08:20 78° ENE 05:13:25 10° N visible
11 Apr ? 19:01:27 10° NW 19:03:59 14° WNW 19:06:33 10° W visible
12 Apr ? 04:28:49 10° SE 04:33:16 32° ENE 04:37:42 10° N visible
13 Apr ? 03:55:58 10° E 03:58:21 13° ENE 04:00:43 10° NE visible
